OBJECT G, 63988

Orbit data source: Space-Track

You're viewing an Uncataloged Satellite

Recently launched and/or uncataloged satellites may have evolving metadata. Metadata may include but not limited to: Owner, Maufacturer, Bus, Motor, and Mission.

OBJECT G, 63988 is a Chinese satellite in SSO that was launched on Wed, 14 May 2025 UTC via a CHANG ZHENG 2D launch vehicle from the Jiuquan Satellite Launch Center, China (JSC). Unknown objects in Earth's orbit typically refer to objects detected orbiting the Earth but have not yet been identified or cataloged. These objects could be anything from previously untracked satellites, spent rocket stages, debris from satellite collisions, or even natural meteoroids temporarily captured by Earth's gravity.

Loading next visibility...
Identifier
63988, 2025-100G
Orbit
SSO
Country
Flag of CNCN / PRC
Related business
None
Manufacturer
Unknown
Mission
Operational Commercial Technology
Bus & Motor
Unknown
Mass
Unknown
Launch date (UTC)
2025-05-14 (1 year ago)
Launch vehicle
CHANG ZHENG 2D
Launch site
Jiuquan Satellite Launch Center, China (JSC)
Object type
Unknown
Shape & HBR
Box + 2 Pan, 1.1 m
Radar Cross Section
0.135 m², Large (>1 m²)

Expand to show TLE details & history
Last TLE update: 10 hours ago

TLE from 10 hours ago
0 OBJECT G
1 63988U 25100G   26202.26682642  .00003739  00000-0  14380-3 0  9991
2 63988  97.3683 276.8331 0012945 177.0999 183.0317 15.26946671 65961
Epoch: 2026-07-21T06:24Z
TLE epoch observation values (Epoch: 2026-07-21T06:24:13.802Z)
Latitude
-0.00008°
Longitude
-118.26338°
Altitude
496.921 km
Speed
7.611 km/s
True Right ascension
18h 27m 19s
True Declination
0° 00' 00"
Sunlit
Object was in full shadow at epoch
Visualization orbit readout
Latitude
Unknown
Longitude
Unknown
Altitude
Unknown
Speed
Unknown
Apparent Right ascension
Unknown
Apparent Declination
Unknown
Sunlit
N/A
Visualization observer readout
Local Sidereal Time
05:03:36
Azimuth
Unknown
Elevation
Unknown
Doppler factor
Unknown
Orbital elements
Apogee altitude
490.781 km
Perigee altitude
473.021 km
Semi-major axis
6,860.038 km
Eccentricity
0.00129
Inclination
97.3683°
RAAN
276.8331°
Arg. of periapsis
177.0999°
True anomaly
183.02387°
Mean anomaly
183.0317°
Eccentric anomaly
183.02778°
Mean motion
3.81991 °/min
Orbital period
94.24 mins
BSTAR
0.0001438
Loading maneuver chart data...
Computing Atmospheric mass density...
Loading historical data...
Loading historical data...
Loading historical data...
Loading historical data...
Loading historical data...
Loading historical data...
Loading historical data...

Documentation

Showing up to 5 results
|